Weather History for KLFK - January, 2013

Change the Weather History Date:

Monday, January 14, 2013

  Actual Average Record
Temperature  
Mean Temperature 41 °F 49 °F  
Max Temperature 45 °F 60 °F 81 °F (1907)
Min Temperature 36 °F 38 °F 10 °F (1982)
Degree Days  
Heating Degree Days 24 16  
Month to date heating degree days 202 236  
Since 1 July heating degree days 819 1014  
Cooling Degree Days 0 0  
Month to date cooling degree days 0 0  
Year to date cooling degree days 0 0  
Moisture  
Dew Point 32 °F    
Average Humidity 76    
Maximum Humidity 85    
Minimum Humidity 67    
Precipitation  
Precipitation 0.09 in 0.13 in 2.11 in (2007)
Month to date precipitation 3.50 1.81  
Year to date precipitation 3.50 1.81  
Snow  
Snow 0.00 in - - ()
Month to date snowfall 0.0  
Since 1 July snowfall 0.0  
Snow Depth 0.00 in    
Sea Level Pressure  
Sea Level Pressure 30.19 in    
Wind  
Wind Speed 8 mph (NNE)    
Max Wind Speed 15 mph    
Max Gust Speed 22 mph    
Visibility 10 miles    
Events Rain    
T = Trace of Precipitation, MM = Missing Value Source: NWS Daily Summary

Daily Weather History Graph

Daily Weather History Graph

Search for Another Location

Airport or City:

Trip Planner

Search our weather history database for the weather conditions in past years. The results will help you decide how hot, cold, wet, or windy it might be!

Date:

Astronomy

Jan. 14, 2013 Rise Set
Actual Time 7:18 AM CST 5:38 PM CST
Civil Twilight 6:52 AM CST 6:04 PM CST
Nautical Twilight 6:22 AM CST 6:34 PM CST
Astronomical Twilight 5:53 AM CST 7:03 PM CST
Moon 9:07 AM CST (1/14) 9:07 PM CST (1/14)
Length of Visible Light 11h 12m
Length of Day
10h 20m
Waxing Crescent, 11% of the Moon is Illuminated
Jan 14
Waxing Crescent
Jan 18
First Quarter
Jan 26
Full
Feb 3
Last Quarter
Feb 10
New

Hourly Weather History & Observations

Time (CST) Temp. Windchill Dew Point Humidity Pressure Visibility Wind Dir Wind Speed Gust Speed Precip Events Conditions
12:53 AM 42.1 °F 38.4 °F 33.1 °F 70% 30.18 in 10.0 mi NNE 5.8 mph - N/A   Overcast
1:53 AM 42.1 °F 37.7 °F 34.0 °F 73% 30.15 in 10.0 mi NNE 6.9 mph - N/A   Overcast
2:23 AM 42.8 °F 36.2 °F 35.6 °F 76% 30.13 in 10.0 mi NNE 12.7 mph 17.3 mph N/A   Scattered Clouds
2:53 AM 43.0 °F 38.2 °F 33.1 °F 68% 30.13 in 10.0 mi NE 8.1 mph 17.3 mph N/A   Clear
3:53 AM 42.1 °F 36.6 °F 33.1 °F 70% 30.14 in 10.0 mi NNE 9.2 mph - N/A   Overcast
4:53 AM 41.0 °F 35.8 °F 32.0 °F 70% 30.17 in 10.0 mi North 8.1 mph - N/A   Overcast
5:03 AM 41.0 °F 34.3 °F 32.0 °F 70% 30.18 in 10.0 mi North 11.5 mph - N/A   Overcast
5:33 AM 41.0 °F 33.9 °F 32.0 °F 70% 30.16 in 10.0 mi North 12.7 mph 19.6 mph N/A   Overcast
5:53 AM 41.0 °F 36.4 °F 32.0 °F 70% 30.19 in 10.0 mi Variable 6.9 mph - N/A   Overcast
6:53 AM 39.0 °F 33.4 °F 33.1 °F 79% 30.17 in 10.0 mi North 8.1 mph - 0.02 in Rain Light Rain
7:02 AM 39.2 °F 31.2 °F 33.8 °F 81% 30.17 in 8.0 mi North 13.8 mph 19.6 mph 0.01 in Rain Light Rain
7:53 AM 37.0 °F 29.8 °F 33.1 °F 86% 30.23 in 7.0 mi North 10.4 mph - 0.04 in Rain Light Rain
8:53 AM 36.0 °F 27.5 °F 30.9 °F 82% 30.23 in 7.0 mi North 12.7 mph 20.7 mph 0.03 in Rain Light Rain
9:53 AM 36.0 °F 28.5 °F 30.9 °F 82% 30.27 in 6.0 mi NNE 10.4 mph 16.1 mph 0.00 in   Haze
10:21 AM 35.6 °F 29.2 °F 30.2 °F 81% 30.26 in 9.0 mi NNE 8.1 mph - 0.00 in   Overcast
10:53 AM 37.0 °F 30.4 °F 30.9 °F 79% 30.26 in 10.0 mi NNE 9.2 mph - 0.00 in   Overcast
11:53 AM 39.0 °F 33.4 °F 32.0 °F 76% 30.22 in 10.0 mi NNE 8.1 mph 16.1 mph N/A   Overcast
12:42 PM 41.0 °F 35.2 °F 32.0 °F 70% 30.20 in 10.0 mi NNE 9.2 mph - N/A   Overcast
12:53 PM 41.0 °F 36.4 °F 33.8 °F 76% 30.19 in 10.0 mi NNE 6.9 mph - N/A   Overcast
1:37 PM 42.8 °F 38.0 °F 33.8 °F 70% 30.18 in 10.0 mi NE 8.1 mph - N/A   Overcast
1:53 PM 43.0 °F 38.8 °F 33.1 °F 68% 30.18 in 10.0 mi NE 6.9 mph - N/A   Overcast
2:53 PM 43.0 °F 38.2 °F 33.1 °F 68% 30.18 in 10.0 mi NNE 8.1 mph - N/A   Overcast
3:53 PM 42.8 °F 38.0 °F 33.8 °F 70% 30.18 in 10.0 mi NNE 8.1 mph 16.1 mph N/A   Overcast
4:53 PM 42.1 °F 38.4 °F 32.0 °F 67% 30.19 in 10.0 mi NE 5.8 mph - N/A   Clear
5:53 PM 41.0 °F 37.1 °F 32.0 °F 70% 30.20 in 10.0 mi NE 5.8 mph - N/A   Scattered Clouds
6:07 PM 39.2 °F 33.6 °F 30.2 °F 70% 30.20 in 10.0 mi NE 8.1 mph - N/A   Mostly Cloudy
6:53 PM 39.0 °F 32.3 °F 30.9 °F 73% 30.20 in 10.0 mi NE 10.4 mph - N/A   Overcast
7:53 PM 37.9 °F 31.5 °F 30.0 °F 73% 30.20 in 10.0 mi NE 9.2 mph - N/A   Mostly Cloudy
8:09 PM 37.4 °F 30.8 °F 30.2 °F 75% 30.19 in 10.0 mi NE 9.2 mph 16.1 mph N/A   Scattered Clouds
8:16 PM 37.4 °F 31.4 °F 30.2 °F 75% 30.19 in 10.0 mi NE 8.1 mph - N/A   Mostly Cloudy
8:53 PM 37.9 °F 32.7 °F 30.0 °F 73% 30.18 in 10.0 mi NE 6.9 mph - N/A   Overcast
9:53 PM 37.0 °F 31.6 °F 30.0 °F 76% 30.17 in 10.0 mi NE 6.9 mph - N/A   Overcast
10:53 PM 37.0 °F 31.6 °F 30.0 °F 76% 30.17 in 10.0 mi NE 6.9 mph - N/A   Overcast
11:53 PM 37.0 °F 32.4 °F 30.0 °F 76% 30.15 in 10.0 mi NNE 5.8 mph - N/A   Overcast